Weather History for Monroe, LA

Change the Weather History Date:

Sunday, April 28, 2013

  Actual Average Record
Temperature  
Mean Temperature 72 °F 69 °F  
Max Temperature 82 °F 81 °F 92 °F (2002)
Min Temperature 61 °F 57 °F 43 °F (1965)
Degree Days  
Heating Degree Days 0 1  
Month to date heating degree days 137 79  
Since 1 July heating degree days 2164 2223  
Cooling Degree Days 7 5  
Month to date cooling degree days 83 92  
Year to date cooling degree days 104 135  
Growing Degree Days 22 (Base 50)    
Moisture  
Dew Point 58 °F    
Average Humidity 64    
Maximum Humidity 93    
Minimum Humidity 34    
Precipitation  
Precipitation T in 0.15 in 6.73 in (1991)
Month to date precipitation 5.45 4.21  
Year to date precipitation 21.66 18.57  
Snow  
Snow 0.00 in - - ()
Month to date snowfall 0.0  
Since 1 July snowfall 0.3  
Snow Depth 0.00 in    
Sea Level Pressure  
Sea Level Pressure 29.98 in    
Wind  
Wind Speed 4 mph (NNW)    
Max Wind Speed 15 mph    
Max Gust Speed 21 mph    
Visibility 10 miles    
Events      
T = Trace of Precipitation, MM = Missing Value Source: NWS Daily Summary

Daily Weather History Graph

Daily Weather History Graph

Search for Another Location

Airport:

Trip Planner

Search our weather history database for the weather conditions in past years. The results will help you decide how hot, cold, wet, or windy it might be!

Date:

Astronomy

Apr. 28, 2013 Rise Set
Actual Time 6:24 AM CDT 7:47 PM CDT
Civil Twilight 5:58 AM CDT 8:13 PM CDT
Nautical Twilight 5:27 AM CDT 8:44 PM CDT
Astronomical Twilight 4:54 AM CDT 9:17 PM CDT
Moon 11:12 PM CDT (4/28) 8:47 AM CDT (4/28)
Length of Visible Light 14h 15m
Length of Day
13h 23m
Waning Gibbous, 88% of the Moon is Illuminated
Apr 28
Waning Gibbous
May 2
Last Quarter
May 9
New
May 17
First Quarter
May 24
Full

Hourly Weather History & Observations

Time (CDT) Temp. Dew Point Humidity Pressure Visibility Wind Dir Wind Speed Gust Speed Precip Events Conditions
12:41 AM 68.0 °F 64.4 °F 88% 30.00 in 10.0 mi SW 3.5 mph - N/A   Mostly Cloudy
12:53 AM 69.1 °F 64.9 °F 87% 30.01 in 10.0 mi West 4.6 mph - N/A   Overcast
1:53 AM 68.0 °F 61.0 °F 78% 30.02 in 10.0 mi NW 5.8 mph - N/A   Overcast
2:53 AM 66.9 °F 61.0 °F 81% 30.00 in 10.0 mi North 6.9 mph - N/A   Overcast
3:53 AM 66.0 °F 59.0 °F 78% 29.98 in 10.0 mi North 6.9 mph - N/A   Overcast
4:53 AM 64.9 °F 59.0 °F 81% 29.98 in 10.0 mi Calm Calm - N/A   Overcast
5:21 AM 64.4 °F 59.0 °F 83% 29.98 in 10.0 mi Calm Calm - N/A   Overcast
5:53 AM 64.0 °F 59.0 °F 84% 29.98 in 10.0 mi Calm Calm - N/A   Mostly Cloudy
6:53 AM 61.0 °F 57.9 °F 90% 29.99 in 10.0 mi Calm Calm - N/A   Scattered Clouds
7:13 AM 62.6 °F 59.0 °F 88% 30.00 in 10.0 mi North 5.8 mph - N/A   Mostly Cloudy
7:53 AM 62.6 °F 59.0 °F 88% 30.02 in 10.0 mi NNW 4.6 mph - N/A   Overcast
8:53 AM 63.0 °F 60.1 °F 90% 30.02 in 10.0 mi Calm Calm - 0.00 in   Overcast
9:53 AM 66.0 °F 60.1 °F 81% 30.02 in 10.0 mi NW 4.6 mph - N/A   Overcast
10:17 AM 66.2 °F 60.8 °F 83% 30.03 in 10.0 mi Calm Calm - N/A   Scattered Clouds
10:53 AM 68.0 °F 60.1 °F 76% 30.03 in 10.0 mi Variable 3.5 mph - N/A   Clear
11:53 AM 71.1 °F 61.0 °F 70% 30.01 in 10.0 mi NW 4.6 mph - N/A   Clear
12:53 PM 77.0 °F 57.9 °F 52% 29.99 in 10.0 mi West 9.2 mph - N/A   Clear
1:53 PM 80.1 °F 52.0 °F 38% 29.97 in 10.0 mi WNW 12.7 mph 20.7 mph N/A   Clear
2:53 PM 81.0 °F 51.1 °F 35% 29.95 in 10.0 mi NW 6.9 mph - N/A   Clear
3:53 PM 80.6 °F 51.8 °F 37% 29.93 in 10.0 mi NW 9.2 mph - N/A   Clear
4:53 PM 82.0 °F 51.1 °F 34% 29.91 in 10.0 mi North 8.1 mph - N/A   Clear
5:53 PM 81.0 °F 52.0 °F 36% 29.92 in 10.0 mi NNE 5.8 mph - N/A   Partly Cloudy
6:53 PM 78.1 °F 55.0 °F 45% 29.93 in 10.0 mi NNE 3.5 mph - N/A   Clear
7:11 PM 75.2 °F 57.2 °F 53% 29.92 in 10.0 mi North 5.8 mph - N/A   Scattered Clouds
7:53 PM 69.1 °F 57.9 °F 68% 29.93 in 10.0 mi Calm Calm - N/A   Clear
8:53 PM 64.0 °F 57.9 °F 80% 29.94 in 10.0 mi Calm Calm - N/A   Clear
9:53 PM 64.9 °F 55.9 °F 73% 29.96 in 10.0 mi ENE 5.8 mph - N/A   Clear
10:53 PM 62.1 °F 55.9 °F 80% 29.97 in 10.0 mi ENE 3.5 mph - N/A   Mostly Cloudy
11:53 PM 63.0 °F 55.9 °F 78% 29.96 in 10.0 mi Calm Calm - N/A   Partly Cloudy